Location: Grange Rosano
(44.4500°N, 6.9667°E)
Time: 19:18:57
(UTC+00:00)

Cosmos 2341 Rocket - Pass Details

Date: 26 May 2022
Orbit: 969 x 1003 km, 82.9° (Epoch: 01 July)

Event Time Altitude Azimuth Distance (km) Brightness Sun altitude
Rises 02:38:18 0° 350° (N) 3,734 7.6 -11.5°
Reaches altitude 10° 02:40:50 10° 349° (NNW) 2,783 6.9 -11.2°
Maximum altitude 02:47:13 75° 266° (W) 1,041 4.1 -10.4°
Drops below altitude 10° 02:53:34 10° 181° (S) 2,768 6.0 -9.6°
Sets 02:56:05 0° 180° (S) 3,712 6.6 -9.2°
